AMAZONAS 3

Last updated on Sun Apr 12 2026 00:02:53 GMT+0000 (Coordinated Universal Time)

1 39078U 13006A 26101.43730830 -.00000281 00000+0 00000+0 0 9995 2 39078 0.0167 193.9352 0001722 183.2977 278.8651 1.00270759 44246
UTC large
Height (km)
Speed (km/s)
/
Latitude / Longitude
Inclination (degrees)
Orbital Period (minutes)
Azimuth
Elevation
Range (km)
Doppler Factor

Next 0 passes for location: London (51.5072 / 0.1276)

Sorry there are no passes over London.
AMAZONAS 3